Flag for Norway Weather past 2 weeks in Eidsvoll, Norway

Now
55 °F

Sleet. Overcast.


Feels Like: 54 °F
Forecast: 48 / 56 °F
Wind: 6 mph from Northeast

Location: Oslo Gardermoen Airport

Current Time: Jul 28, 2015 at 10:52:00 PM

Latest Report: Jul 28, 2015 at 10:20 PM


Visibility: N/A

Pressure: 29.53 "Hg

Humidity: 82%

Dew point: 50 °F

Location of EidsvollLocation

Historic Weather in Eidsvoll — Graph

°F

Eidsvoll temperature yesterday

Maximum temperature yesterday: 66 °F (at 1:50 PM)
Minimum temperature yesterday: 50 °F (at 12:20 AM)
Average temperature yesterday: 57 °F

Past Weeks' High & Low Weather Summary

 TemperatureHumidityPressure
High70 °F (Jul 14, 2:50 PM)100% (Jul 14, 6:50 AM)30.07 "Hg (Jul 14, 6:50 AM)
Low43 °F (Jul 25, 4:20 AM)35% (Jul 17, 5:20 PM)29.36 "Hg (Jul 26, 4:20 PM)
Average57 °F73%29.68 "Hg
* Reported Jul 13 9:20 PM — Jul 28 9:20 PM, Eidsvoll, Weather by CustomWeather, © 2015

Note: Actual official high and low records may vary slightly from our data, if they occured in-between our weather recording intervals... More about our weather records

Advertising

Eidsvoll weather history for previous 24 hours

 ConditionsComfort  
Time TempWeatherWind HumidityBarometerVisibility
9:20 PM
Tue, Jul 28
57 °FPartly sunny.7 mph77%29.53 "HgN/A
8:50 PM57 °FBroken clouds.6 mph72%29.53 "HgN/A
8:20 PM57 °FBroken clouds.6 mph72%29.53 "HgN/A
7:50 PM59 °FPartly sunny.6 mph68%29.53 "HgN/A
7:20 PM59 °FPartly sunny.5 mph68%29.53 "HgN/A
6:50 PM59 °FBroken clouds.7 mph68%29.53 "HgN/A
6:20 PM59 °FPartly sunny.8 mph68%29.53 "HgN/A
5:50 PM59 °FPartly sunny.8 mph68%29.53 "HgN/A
5:20 PM59 °FPartly sunny.7 mph68%29.53 "HgN/A
4:50 PM59 °FBroken clouds.9 mph68%29.53 "HgN/A
4:20 PM61 °FBroken clouds.7 mph63%29.53 "HgN/A
3:50 PM61 °FPartly sunny.8 mph63%29.53 "HgN/A
3:20 PM61 °FBroken clouds.6 mph63%29.53 "HgN/A
2:50 PM59 °FLight rain. Partly sunny.6 mph68%29.53 "HgN/A
2:20 PM59 °FLight rain. Broken clouds.7 mph68%29.53 "HgN/A
1:50 PM59 °FBroken clouds.8 mph68%29.53 "HgN/A
1:20 PM59 °FPartly sunny.7 mph68%29.53 "HgN/A
12:50 PM57 °FPartly sunny.6 mph72%29.53 "HgN/A
12:20 PM57 °FBroken clouds.2 mph82%29.53 "HgN/A
11:50 AM57 °FBroken clouds.3 mph82%29.53 "HgN/A
11:20 AM55 °FLight rain. Broken clouds.3 mph82%29.56 "HgN/A
10:50 AM55 °FLight rain. Partly sunny.5 mph82%29.56 "HgN/A
10:20 AM55 °FPartly sunny.5 mph88%29.56 "HgN/A
9:50 AM55 °FPartly sunny.5 mph88%29.53 "HgN/A
9:20 AM54 °FBroken clouds.3 mph88%29.53 "HgN/A
8:50 AM54 °FLight rain. Broken clouds.2 mph94%29.53 "HgN/A
8:20 AM54 °FLight rain. Partly sunny.2 mph94%29.53 "HgN/A
7:50 AM54 °FLight rain. Broken clouds.2 mph94%29.53 "HgN/A
7:20 AM54 °FLight rain. Broken clouds.2 mph94%29.53 "HgN/A
6:50 AM54 °FLight rain. Broken clouds.2 mph94%29.53 "HgN/A
6:20 AM54 °FLight rain. Broken clouds.3 mph94%29.53 "Hg6 mi
5:50 AM54 °FLight rain. More clouds than sun.3 mph94%29.53 "Hg6 mi
5:20 AM54 °FLight rain. Partly cloudy.2 mph94%29.53 "HgN/A
4:50 AM54 °FPassing clouds.5 mph88%29.53 "HgN/A
4:20 AM54 °FPassing clouds.3 mph88%29.53 "HgN/A
3:50 AM54 °FPartly cloudy.3 mph88%29.53 "HgN/A
3:20 AM54 °FPassing clouds.5 mph88%29.53 "HgN/A
2:50 AM54 °FPartly cloudy.3 mph88%29.53 "HgN/A
2:20 AM54 °FPassing clouds.5 mph88%29.53 "HgN/A
1:50 AM54 °FClear.7 mph88%29.53 "Hg10 mi
1:20 AM54 °FPassing clouds.7 mph88%29.53 "HgN/A
12:50 AM54 °FClear.6 mph88%29.53 "Hg10 mi
11:50 PM
Mon, Jul 27
54 °FPassing clouds.7 mph82%29.53 "HgN/A
11:20 PM54 °FClear.7 mph82%29.53 "Hg10 mi
10:50 PM54 °FPartly sunny.8 mph82%29.53 "HgN/A
10:20 PM55 °FPartly sunny.6 mph77%29.53 "HgN/A
Weather by CustomWeather, © 2015

See weather overviewHow to use our weather pages